KE7JVX-3 Weather Reports


time (UTC)temp
F
wind
direction
speed
knots
gust
knots
rain 1hr
in
rain 24hr
in
rain mn
in
humidity
%
barometer
mb
20260508155527 56 34 0.9 7.0 0.00 0.00 0.00 12 1013.8
20260508154527 55 49 1.7 7.0 0.00 0.00 0.00 11 1013.7
20260508153527 54 23 3.5 10.4 0.00 0.00 0.00 11 1013.7
20260508152526 54 29 2.6 13.0 0.00 0.00 0.00 13 1013.6
20260508151526 54 18 5.2 11.3 0.00 0.00 0.00 12 1013.5
20260508150527 53 1 5.2 13.0 0.00 0.00 0.00 12 1013.4
20260508145526 53 357 6.1 11.3 0.00 0.00 0.00 12 1013.5
20260508144526 53 360 6.1 14.8 0.00 0.00 0.00 12 1013.4
20260508143526 53 347 6.1 14.8 0.00 0.00 0.00 13 1013.3
20260508142526 53 336 5.2 13.0 0.00 0.00 0.00 11 1013.3
20260508141526 52 344 6.1 12.2 0.00 0.00 0.00 12 1013.2
20260508140526 52 342 7.0 14.8 0.00 0.00 0.00 11 1013.2
20260508135526 51 339 7.0 16.5 0.00 0.00 0.00 10 1013.0
20260508134526 51 338 7.8 16.5 0.00 0.00 0.00 9 1012.9
20260508133526 51 330 8.7 16.5 0.00 0.00 0.00 8 1012.9
20260508132526 51 335 8.7 14.8 0.00 0.00 0.00 8 1012.8
20260508131526 51 331 8.7 15.6 0.00 0.00 0.00 8 1012.8
20260508130531 51 329 9.6 17.4 0.00 0.00 0.00 8 1012.7
20260508125526 50 330 8.7 17.4 0.00 0.00 0.00 8 1012.6
20260508124526 50 328 11.3 17.4 0.00 0.00 0.00 9 1012.5
20260508123720 50 333 10.4 16.5 0.00 0.00 0.00 9 1012.5
20260508123526 50 333 10.4 16.5 0.00 0.00 0.00 9 1012.5
20260508122701 50 329 9.6 16.5 0.00 0.00 0.00 9 1012.4
20260508122526 50 329 9.6 16.5 0.00 0.00 0.00 9 1012.4
20260508121526 50 335 9.6 16.5 0.00 0.00 0.00 10 1012.4
20260508120527 50 330 8.7 15.6 0.00 0.00 0.00 10 1012.3
20260508115526 50 337 9.6 17.4 0.00 0.00 0.00 10 1012.3
20260508114526 50 332 8.7 16.5 0.00 0.00 0.00 12 1012.4
20260508113526 50 332 9.6 15.6 0.00 0.00 0.00 12 1012.4
20260508112526 50 335 8.7 13.9 0.00 0.00 0.00 13 1012.4
20260508111526 49 333 9.6 14.8 0.00 0.00 0.00 13 1012.4
20260508110526 49 334 8.7 14.8 0.00 0.00 0.00 15 1012.4
20260508105526 49 331 7.8 15.6 0.00 0.00 0.00 16 1012.5
20260508104526 49 336 7.8 15.6 0.00 0.00 0.00 17 1012.6
20260508103701 49 328 9.6 15.6 0.00 0.00 0.00 18 1012.6
20260508103526 49 328 9.6 15.6 0.00 0.00 0.00 18 1012.6
20260508102526 49 330 8.7 14.8 0.00 0.00 0.00 16 1012.5
20260508101526 49 328 8.7 14.8 0.00 0.00 0.00 17 1012.5
20260508100526 49 329 9.6 15.6 0.00 0.00 0.00 15 1012.4
20260508095526 49 326 8.7 15.6 0.00 0.00 0.00 13 1012.4
20260508094646 50 337 9.6 14.8 0.00 0.00 0.00 13 1012.4
20260508094526 50 337 9.6 14.8 0.00 0.00 0.00 13 1012.4
20260508093526 50 334 8.7 14.8 0.00 0.00 0.00 12 1012.4
20260508092526 50 328 8.7 13.9 0.00 0.00 0.00 13 1012.4
20260508091527 50 330 9.6 16.5 0.00 0.00 0.00 12 1012.4
20260508090526 50 330 8.7 15.6 0.00 0.00 0.00 10 1012.4
20260508085702 50 330 9.6 17.4 0.00 0.00 0.00 9 1012.5
20260508085526 50 330 9.6 17.4 0.00 0.00 0.00 9 1012.5
20260508084526 50 328 10.4 14.8 0.00 0.00 0.00 9 1012.6
20260508083529 50 329 10.4 14.8 0.00 0.00 0.00 9 1012.6
20260508082017 50 330 7.8 14.8 0.00 0.00 0.00 9 1012.7
20260508081929 50 330 7.8 14.8 0.00 0.00 0.00 9 1012.7
20260508080929 50 328 10.4 16.5 0.00 0.00 0.00 9 1012.8
20260508080015 50 314 9.6 15.6 0.00 0.00 0.00 9 1012.9
20260508075929 50 314 9.6 15.6 0.00 0.00 0.00 9 1012.9
20260508074928 50 320 10.4 17.4 0.00 0.00 0.00 9 1013.0
20260508074000 50 321 9.6 14.8 0.00 0.00 0.00 9 1013.0
20260508073928 50 321 9.6 14.8 0.00 0.00 0.00 9 1013.0
20260508072931 50 319 10.4 17.4 0.00 0.00 0.00 9 1013.1
20260508071316 51 318 10.4 18.2 0.00 0.00 0.00 9 1013.0
20260508071228 51 318 10.4 18.2 0.00 0.00 0.00 9 1013.0
20260508070229 51 332 10.4 16.5 0.00 0.00 0.00 10 1013.2
20260508065227 51 324 9.6 18.2 0.00 0.00 0.00 9 1013.2
20260508064228 51 319 9.6 17.4 0.00 0.00 0.00 10 1013.2
20260508063228 51 317 9.6 14.8 0.00 0.00 0.00 10 1013.2
20260508062227 51 317 10.4 18.2 0.00 0.00 0.00 9 1013.2
20260508061227 51 331 10.4 16.5 0.00 0.00 0.00 8 1013.2
20260508060227 51 322 9.6 15.6 0.00 0.00 0.00 8 1013.2
20260508055228 51 323 8.7 15.6 0.00 0.00 0.00 7 1013.2
20260508054328 51 329 8.7 13.9 0.00 0.00 0.00 7 1013.2
20260508054229 51 329 8.7 13.9 0.00 0.00 0.00 7 1013.2
20260508053228 51 327 8.7 13.9 0.00 0.00 0.00 7 1013.2
20260508052336 51 323 10.4 15.6 0.00 0.00 0.00 6 1013.2
20260508052227 51 323 10.4 15.6 0.00 0.00 0.00 6 1013.2
20260508051302 51 318 10.4 16.5 0.00 0.00 0.00 6 1013.1
20260508051227 51 318 10.4 16.5 0.00 0.00 0.00 6 1013.1
20260508050301 51 319 10.4 14.8 0.00 0.00 0.00 6 1013.1
20260508050227 51 319 10.4 14.8 0.00 0.00 0.00 6 1013.1
20260508045306 51 315 10.4 15.6 0.00 0.00 0.00 6 1013.1
20260508045227 51 315 10.4 15.6 0.00 0.00 0.00 6 1013.1
20260508044317 51 317 9.6 19.1 0.00 0.00 0.00 5 1013.0
20260508044227 51 317 9.6 19.1 0.00 0.00 0.00 5 1013.0
20260508043301 51 319 9.6 15.6 0.00 0.00 0.00 5 1012.9
20260508043227 51 319 9.6 15.6 0.00 0.00 0.00 5 1012.9
20260508042227 51 324 10.4 14.8 0.00 0.00 0.00 5 1012.8
20260508041228 51 312 9.6 15.6 0.00 0.00 0.00 5 1012.7
20260508040302 51 316 9.6 16.5 0.00 0.00 0.00 4 1012.7
20260508040227 51 316 9.6 16.5 0.00 0.00 0.00 4 1012.7
20260508035325 51 316 8.7 16.5 0.00 0.00 0.00 4 1012.6
20260508035227 51 316 8.7 16.5 0.00 0.00 0.00 4 1012.6
20260508034310 52 310 13.0 18.2 0.00 0.00 0.00 4 1012.5
20260508034228 52 310 13.0 18.2 0.00 0.00 0.00 4 1012.5
20260508033303 52 310 11.3 17.4 0.00 0.00 0.00 4 1012.3
20260508033227 52 310 11.3 17.4 0.00 0.00 0.00 4 1012.3
20260508032306 52 309 10.4 14.8 0.00 0.00 0.00 3 1012.2
20260508032227 52 309 10.4 14.8 0.00 0.00 0.00 3 1012.2
20260508031326 52 301 10.4 14.8 0.00 0.00 0.00 3 1012.2
20260508031227 52 301 10.4 14.8 0.00 0.00 0.00 3 1012.2
20260508030302 52 310 9.6 15.6 0.00 0.00 0.00 3 1012.1
20260508030227 52 310 9.6 15.6 0.00 0.00 0.00 3 1012.1
20260508025227 52 311 10.4 15.6 0.00 0.00 0.00 3 1012.0
20260508024227 52 316 7.8 12.2 0.00 0.00 0.00 3 1012.0
20260508023228 52 312 7.8 12.2 0.00 0.00 0.00 4 1011.8
20260508022326 53 309 7.0 10.4 0.00 0.00 0.00 4 1011.7
20260508022227 53 309 7.0 10.4 0.00 0.00 0.00 4 1011.7
20260508021318 53 308 7.0 10.4 0.00 0.00 0.00 4 1011.7
20260508021227 53 308 7.0 10.4 0.00 0.00 0.00 4 1011.7
20260508020229 54 297 6.1 9.6 0.00 0.00 0.00 3 1011.8
20260508015227 55 303 3.5 7.8 0.00 0.00 0.00 1 1011.8
20260508014227 56 322 1.7 7.0 0.00 0.00 0.00 1 1011.8
20260508013228 56 325 4.3 7.8 0.00 0.00 0.00 2 1011.8
20260508012227 57 16 0.9 4.3 0.00 0.00 0.00 1 1011.8
20260508011227 57 322 1.7 6.1 0.00 0.00 0.00 1 1011.8
20260508010230 57 21 0.9 4.3 0.00 0.00 0.00 1 1011.8
20260508005227 57 21 0.9 4.3 0.00 0.00 0.00 1 1011.7
20260508004227 57 47 2.6 6.1 0.00 0.00 0.00 1 1011.7
20260508003227 58 22 2.6 5.2 0.00 0.00 0.00 1 1011.7
20260508002227 57 330 0.9 7.0 0.00 0.00 0.00 2 1011.7
20260508001227 57 83 2.6 7.0 0.00 0.00 0.00 2 1011.7
20260507235227 57 97 1.7 7.0 0.00 0.00 0.00 1 1011.7
20260507234227 58 112 1.7 7.8 0.00 0.00 0.00 1 1011.6
20260507233231 58 31 2.6 6.1 0.00 0.00 0.00 1 1011.7
20260507232228 59 10 1.7 6.1 0.00 0.00 0.00 2 1011.7
20260507231227 58 327 0.9 3.5 0.00 0.00 0.00 3 1011.7
20260507230231 57 102 0.9 8.7 0.00 0.00 0.00 3 1011.7
20260507225229 57 51 3.5 9.6 0.00 0.00 0.00 4 1011.6
20260507224229 56 103 2.6 9.6 0.00 0.00 0.00 4 1011.7
20260507223301 57 103 7.0 10.4 0.00 0.00 0.00 4 1011.7
20260507223227 57 103 7.0 10.4 0.00 0.00 0.00 4 1011.7
20260507222227 57 109 5.2 8.7 0.00 0.00 0.00 4 1011.8
20260507221228 57 24 2.6 7.0 0.00 0.00 0.00 6 1011.8
20260507220228 57 46 2.6 7.8 0.00 0.00 0.00 4 1011.9
20260507215227 58 46 4.3 8.7 0.00 0.00 0.00 3 1012.0
20260507214227 57 134 1.7 5.2 0.00 0.00 0.00 6 1012.1
20260507213229 56 79 0.9 8.7 0.00 0.00 0.00 7 1012.1
20260507212229 57 24 0.9 5.2 0.00 0.00 0.00 6 1012.3
20260507211227 57 312 2.6 6.1 0.00 0.00 0.00 7 1012.4
20260507210227 58 37 2.6 8.7 0.00 0.00 0.00 7 1012.5
20260507205227 58 334 4.3 9.6 0.00 0.00 0.00 8 1012.4
20260507204227 57 33 0.9 7.0 0.00 0.00 0.00 8 1012.5
20260507203301 56 72 0.9 7.8 0.00 0.00 0.00 9 1012.6
20260507203228 56 72 0.9 7.8 0.00 0.00 0.00 9 1012.6
20260507202227 56 68 1.7 7.8 0.00 0.00 0.00 9 1012.7
20260507201227 56 83 2.6 9.6 0.00 0.00 0.00 9 1012.7
20260507200227 55 73 4.3 8.7 0.00 0.00 0.00 9 1012.7
20260507195229 55 100 1.7 9.6 0.00 0.00 0.00 9 1012.7
20260507194301 56 66 4.3 9.6 0.00 0.00 0.00 10 1012.7
20260507194227 56 66 4.3 9.6 0.00 0.00 0.00 10 1012.7
20260507193555 56 351 0.9 7.8 0.00 0.00 0.00 8 1012.9
20260507193227 56 351 0.9 7.8 0.00 0.00 0.00 8 1012.9
20260507192227 56 0 0.0 7.8 0.00 0.00 0.00 10 1013.0
20260507190426 56 219 0.9 5.2 0.00 0.00 0.00 10 1013.1
20260507185427 55 81 3.5 6.1 0.00 0.00 0.00 10 1013.2
20260507184427 54 123 7.0 10.4 0.00 0.00 0.00 8 1013.2
20260507183426 54 0 0.0 9.6 0.00 0.00 0.00 10 1013.1
20260507182426 54 96 2.6 7.8 0.00 0.00 0.00 11 1013.2
20260507181426 54 79 2.6 6.1 0.00 0.00 0.00 12 1013.2
20260507180426 53 66 2.6 7.8 0.00 0.00 0.00 12 1013.2
20260507175426 52 67 2.6 10.4 0.00 0.00 0.00 12 1013.2
20260507174426 52 60 2.6 9.6 0.00 0.00 0.00 15 1013.2
20260507173427 52 51 6.1 9.6 0.00 0.00 0.00 10 1013.2
20260507172426 51 71 3.5 9.6 0.00 0.00 0.00 13 1013.2
20260507171426 51 65 3.5 9.6 0.00 0.00 0.00 14 1013.2
20260507170426 51 73 4.3 11.3 0.00 0.00 0.00 11 1013.2
20260507165426 51 73 4.3 12.2 0.00 0.00 0.00 12 1013.2
20260507164503 50 74 5.2 10.4 0.00 0.00 0.00 13 1013.1
20260507164426 50 74 5.2 10.4 0.00 0.00 0.00 13 1013.1
20260507163426 50 56 5.2 12.2 0.00 0.00 0.00 13 1013.0
20260507161929 50 64 4.3 12.2 0.00 0.00 0.00 13 1013.1
20260507160928 49 65 7.0 13.0 0.00 0.00 0.00 13 1013.1